Location: Unspecified
(0.0000°N, 0.0000°E)
Time: 14:21:45
(UTC+00:00)

ISS - Visible Passes

Search period start: 27 March 2017 00:00
Search period end: 06 April 2017 00:00
Orbit: 399 x 409 km, 51.6° (Epoch: 27 March)

Date Brightness Start Highest point End Pass type
(mag) Time Alt. Az. Time Alt. Az. Time Alt. Az.
27 Mar -1.6 04:53:21 10° N 04:56:10 26° NE 04:58:59 10° ESE visible
28 Mar -0.4 04:03:48 10° NE 04:03:50 10° NE 04:04:27 10° ENE visible
28 Mar -2.5 05:37:24 10° WNW 05:40:06 23° SW 05:42:48 10° S visible
29 Mar -3.9 04:47:55 67° SSW 04:47:55 67° SSW 04:51:02 10° SSE visible
